Regional Weather Roundup
Issued by NWS Upton, NY

Current Version | Previous Version | Text Only | Print | Product List | Glossary Off
Versions: 1 2 3 4 5 6 7 8 9 10 11 12 13 14 15 16 17 18 19 20 21 22 23 24 25 26 27 28 29 30 31 32 33 34 35 36 37 38 39 40 41 42 43 44 45 46 47 48 49 50
000 ASUS41 KOKX 050608 RWROKX REGIONAL WEATHER ROUNDUP NATIONAL WEATHER SERVICE NEW YORK NY 200 AM EDT SUN JUL 05 2015 NOTE: "FAIR" INDICATES FEW OR NO CLOUDS BELOW 12,000 FEET WITH NO SIGNIFICANT WEATHER AND/OR OBSTRUCTIONS TO VISIBILITY. NYZ071-072-176-178-NJZ106-104-050700- NEW YORK CITY METRO AREA CITY SKY/WX TMP DP RH WIND PRES REMARKS CENTRAL PARK PTCLDY 69 58 67 CALM 30.07R LAGUARDIA APRT MOCLDY 70 60 70 CALM 30.04R KENNEDY INTL MOCLDY 68 62 81 S5 30.05R NEWARK/LIBERTY MOCLDY 71 58 63 W3 30.04R BRNX BOT. GARD N/A 64 59 82 E1 30.06R TETERBORO PTCLDY 68 59 73 CALM 30.03R $$ NYZ177-179-078>081-050700- LONG ISLAND NEW YORK CITY SKY/WX TMP DP RH WIND PRES REMARKS FARMINGDALE MOCLDY 67 55 65 W3 30.05R ISLIP PTCLDY 64 54 69 CALM 30.03R SHIRLEY CLOUDY 63 58 83 CALM 30.05R HAZE WESTHAMPTON CLOUDY 58 56 93 CALM 30.05S MONTAUK POINT N/A 65 61 87 CALM 30.04R $$ NYZ052-065-067-050700- HUDSON VALLEY CITY SKY/WX TMP DP RH WIND PRES REMARKS WHITE PLAINS CLEAR 62 60 93 CALM 30.04S FOG NEWBURGH PTCLDY 59 59 100 CALM 30.05S FOG MONTGOMERY MOCLDY 58 56 93 CALM 30.04S FOG POUGHKEEPSIE CLEAR 58 55 90 CALM 30.03S FOG ALBANY MOCLDY 60 58 92 S5 30.02F FOG $$ NJZ001-105-106-008-010-013-015-019>022-104-050700- NEW JERSEY CITY SKY/WX TMP DP RH WIND PRES REMARKS NEWARK/LIBERTY MOCLDY 71 58 63 W3 30.04R TETERBORO PTCLDY 68 59 73 CALM 30.03R CALDWELL PTCLDY 63 59 87 CALM 30.05S MORRISTOWN CLOUDY 66 63 88 CALM 30.05S SOMERVILLE CLOUDY 66 62 87 CALM 30.03S SUSSEX PTCLDY 61 59 93 CALM 30.06S FOG ANDOVER N/A 62 61 96 CALM 30.06F TRENTON CLOUDY 68 59 73 NW3 30.05R MILLVILLE CLOUDY 68 60 75 NE3 30.04S ATLANTIC CITY CLOUDY 67 62 84 N5 30.04S WRIGHTSTOWN CLOUDY 68 58 71 N2 30.03S TOMS RIVER CLOUDY 68 61 77 CALM 30.05S BELMAR CLOUDY 70 57 64 CALM 30.05S $$ PAZ047>061-062-071-050700- EASTERN PENNSYLVANIA CITY SKY/WX TMP DP RH WIND PRES REMARKS PHILADELPHIA CLOUDY 71 57 61 N3 30.06R ALLENTOWN PTCLDY 66 63 90 CALM 30.06S FOG SCRANTON CLOUDY 63 60 90 CALM 30.07S FOG $$ CTZ002-004>006-009-010-012-RIZ004-006-007-MAZ004-011-015-050700- SOUTHERN NEW ENGLAND IN CT CITY SKY/WX TMP DP RH WIND PRES REMARKS BRADLEY INTL CLEAR 60 57 89 CALM 30.02R HARTFORD CLEAR 60 58 92 S5 30.03R FOG DANBURY CLEAR 56 52 86 CALM 30.06R FOG WTRBRY/OXFORD MOCLDY 61 54 77 CALM 30.06S BRIDGEPORT MOCLDY 65 60 84 CALM 30.04R HAZE MERIDEN PTCLDY 58 55 90 CALM 30.04S FOG NEW HAVEN CLOUDY 59 55 87 CALM 30.04R FOG CHESTER FAIR 61 57 88 CALM 30.05R GROTON CLEAR 59 56 89 SW6 30.02R FOG WILLIMANTIC PTCLDY 58 56 93 CALM 30.04R FOG IN RI CITY SKY/WX TMP DP RH WIND PRES REMARKS PROVIDENCE CLEAR 61 58 90 SW5 30.02R FOG BLOCK ISLAND PTCLDY 63 57 82 W5 30.03R WESTERLY CLEAR 58 56 93 CALM 30.03R FOG IN MA CITY SKY/WX TMP DP RH WIND PRES REMARKS BOSTON PTCLDY 62 59 90 S6 30.00S WORCESTER CLEAR 62 56 80 W15 30.02S WESTFIELD PTCLDY 54 53 97 S3 30.02S FOG PROVINCETOWN CLEAR 50 -2 11 CALM 30.00S NANTUCKET CLEAR 57 55 93 CALM 30.00R $$ ANZ330-335-338-340-345-350-353-355-050700- COASTAL MARINE OBSERVATIONS STATION/POSITION TIME SKY/WX TEMP WIND PRES VSBY WAVE AIR SEA DIR/SP/G HT/PER (UTC) (F) (DEG/KT/KT) (MB) (MI) (FT/S) NY HARB ENTRANCE 0550 69 69 230/ 4/ 4 1017.1 3/10 4S FIRE IS 0503 70 N/A 3/10 20S FIRE ISLAND 0550 69 69 210/ 2/ 4 1017.1 4/ 8 GREAT SOUTH BAY 0515 71 74 260/ 4/ 4 N/A 23SW MTP 0550 68 68 280/ 8/ 8 1016.8 3/ 8 HUDSON CANYON NOT AVBL KINGS POINT 0500 68 66 160/ 3/ 4 1016.4 CENTRAL LI SOUND NOT AVBL EASTERN LI SOUND 0500 63 63 320/ 2/ 4 N/A ROBBINS REEF 0500 71 350/ 3/ 3 1016.0 $$ >>>>>>>>>>>>>>>>>>>>>>>>>>>> KEY <<<<<<<<<<<<<<<<<<<<<<<<<<< > < > SKY/WX - SKY CONDITION/PRESENT WEATHER < > TMP - TEMPERATURE IN FAHRENHEIT < > DP - DEWPOINT IN FAHRENHEIT < > RH - RELATIVE HUMIDITY IN PERCENT < > WIND - DIRECTION AND SPEED IN MPH < > PRES - MEAN SEA LEVEL PRESSURE IN INCHES OF HG < > WCI - WIND CHILL INDEX < > VSB - VISIBILITY IN MILES < > HX - HEAT INDEX < > TC - TEMPERATURE IN CELSIUS < > VRB - VARIABLE WIND DIRECTION < > < >>>>>>>>>>>>>>>>>>>>>>>>>>>> KEY <<<<<<<<<<<<<<<<<<<<<<<<<<<

USA.gov is the U.S. government's official web portal to all federal, state and local government web resources and services.